Hourly Data Report for May 24, 2022

LYNN LAKE
MANITOBA
Current Station Operator: NAVCAN

56°51'50.000" N
101°04'34.000" W
356.60 m
5061645
71078
YYL

Download Data

Hourly Data (May 2022)
Hourly Data Report for May 24, 2022
TIME
LST
Temp Definition
°C
Dew Point Definition
°C
Rel Hum Definition
%
Precip. Amount Definition
mm

Wind Dir Definition
10's deg

Wind Spd Definition
km/h
Visibility Definition
km
Stn Press Definition
kPa
Hmdx Definition


Wind Chill Definition


Weather Definition


00:00 -2.8 -4.8 86 0.0 34 9 16.1 97.37   -6 LegendNANA
01:00 -3.5 -4.9 90 0.0 34 11 16.1 97.38   -8 LegendNANA
02:00 -4.3 -5.1 94 0.0 34 9 16.1 97.43   -8 LegendNANA
03:00 -4.9 -5.4 96 0.0 31 8 16.1 97.48   -8 LegendNANA
04:00 -5.6 -6.0 97 0.0 31 9 16.1 97.51   -10 LegendNANA
05:00 -4.9 -5.4 96 0.0 30 9 16.1 97.57   -9 LegendNANA
06:00 -3.4 -4.8 90 0.0 32 8 16.1 97.63   -7 LegendNANA
07:00 -2.2 -5.5 79 0.0 32 11 16.1 97.68   -6 LegendNANA
08:00 -1.7 -6.0 73 0.0 33 9 16.1 97.73   -5 LegendNANA
09:00 -0.2 -5.8 66 0.0 32 11 16.1 97.75   -4 LegendNANA
10:00 1.5 -5.5 60 0.0 32 15 16.1 97.77     LegendNANA
11:00 3.0 -4.8 57 0.0 32 18 16.1 97.79     LegendNANA
12:00 3.6 -5.2 53 0.0 LegendMM 21 16.1 97.77     LegendNANA
13:00 5.2 -5.2 47 0.0 28 17 16.1 97.77     LegendNANA
14:00 6.6 -6.0 40 0.0 33 22 16.1 97.76     LegendNANA
15:00 7.4 -7.1 35 0.0 LegendMM 9 16.1 97.75     LegendNANA
16:00 8.4 -6.4 34 0.0 28 15 16.1 97.75     LegendNANA
17:00 7.8 -6.8 35 0.0 29 9 16.1 97.73     LegendNANA
18:00 7.9 -6.3 36 0.0 28 9 16.1 97.73     LegendNANA
19:00 7.5 -7.4 34 0.0 29 11 16.1 97.71     LegendNANA
20:00 6.1 -6.2 41 0.0 25 5 16.1 97.71     LegendNANA
21:00 3.7 -2.2 66 0.0 23 5 16.1 97.71     LegendNANA
22:00 2.8 -2.7 67 0.0 21 8 16.1 97.73     LegendNANA
23:00 1.5 -4.0 67 0.0   0 16.1 97.72     LegendNANA

Notes on Data Quality.

Legend

  • E = Estimated
  • M = Missing
  • NA = Not Available*
  • [empty] = Indicates an unobserved value
Date modified: